Location: Voyageurs National Park
(48.5020°N, 92.9292°W)
Time: 05:09:58
(UTC-05:00)

Cosmos 2151 - Pass Details

Date: 19 January 2018
Orbit: 583 x 601 km, 82.5° (Epoch: 19 May)

Event Time Altitude Azimuth Distance (km) Brightness Sun altitude
Rises 06:36:47 0° 346° (NNW) 2,864 6.2 -12.8°
Reaches altitude 10° 06:39:01 10° 343° (NNW) 1,956 5.3 -12.4°
Maximum altitude 06:43:16 58° 265° (W) 706 3.0 -11.7°
Drops below altitude 10° 06:47:28 10° 186° (S) 1,935 5.8 -11.1°
Sets 06:49:41 0° 183° (S) 2,831 6.7 -10.7°
